CW2972 Weather Reports


time (UTC)temp
C
wind
direction
speed
KPH
gust
KPH
rain 1hr
cm
rain 24hr
cm
rain mn
cm
humidity
%
barometer
mb
20260502001045 14 290 1.6 6.4 0.00 0.00 0.00 54 1016.0
20260502000825 15 287 1.6 6.4 0.00 0.00 0.00 53 1016.0
20260502000454 15 303 1.6 6.4 0.00 0.00 0.00 52 1016.0
20260502000242 15 326 1.6 4.8 0.00 0.00 0.00 53 1016.0
20260502000136 15 323 1.6 4.8 0.00 0.00 0.00 53 1015.9
20260501235636 15 327 1.6 11.3 0.00 0.00 0.00 52 1015.8
20260501235612 15 332 1.6 11.3 0.00 0.00 0.00 52 1015.8
20260501235433 15 343 1.6 11.3 0.00 0.00 0.00 52 1015.8
20260501234704 15 351 1.6 11.3 0.00 0.00 0.00 52 1015.7
20260501234436 15 354 1.6 8.0 0.00 0.00 0.00 52 1015.7
20260501234331 15 356 1.6 8.0 0.00 0.00 0.00 51 1015.6
20260501233902 15 327 1.6 6.4 0.00 0.00 0.00 52 1015.5
20260501233701 15 21 1.6 6.4 0.00 0.00 0.00 53 1015.5
20260501233521 15 22 1.6 6.4 0.00 0.00 0.00 53 1015.4
20260501232925 15 314 1.6 6.4 0.00 0.00 0.00 52 1015.3
20260501232730 15 296 1.6 8.0 0.00 0.00 0.00 52 1015.4
20260501232446 15 336 3.2 8.0 0.00 0.00 0.00 52 1015.3
20260501232310 15 334 3.2 9.7 0.00 0.00 0.00 51 1015.4
20260501231758 15 4 1.6 16.1 0.00 0.00 0.00 52 1015.4
20260501231602 15 352 1.6 16.1 0.00 0.00 0.00 51 1015.3
20260501231126 15 311 1.6 16.1 0.00 0.00 0.00 51 1015.5
20260501230942 16 325 1.6 16.1 0.00 0.00 0.00 51 1015.5
20260501230736 16 353 3.2 8.0 0.00 0.00 0.00 50 1015.3
20260501230533 16 332 3.2 8.0 0.00 0.00 0.00 50 1015.2
20260501230430 16 307 3.2 9.7 0.00 0.00 0.00 50 1015.3
20260501230222 16 300 3.2 9.7 0.00 0.00 0.00 49 1015.2
20260501230212 16 300 3.2 9.7 0.00 0.00 0.00 49 1015.2
20260501225625 16 281 3.2 9.7 0.00 0.00 0.00 48 1015.2
20260501225342 16 287 3.2 9.7 0.00 0.00 0.00 48 1015.2
20260501225146 16 291 3.2 9.7 0.00 0.00 0.00 47 1015.2
20260501225010 16 290 3.2 9.7 0.00 0.00 0.00 49 1015.2
20260501224816 16 289 3.2 9.7 0.00 0.00 0.00 48 1015.2
20260501224605 16 295 1.6 9.7 0.00 0.00 0.00 47 1015.3
20260501224338 16 290 1.6 9.7 0.00 0.00 0.00 49 1015.3
20260501224208 16 299 1.6 9.7 0.00 0.00 0.00 50 1015.2
20260501223927 16 291 1.6 9.7 0.00 0.00 0.00 49 1015.2
20260501223740 16 290 3.2 9.7 0.00 0.00 0.00 50 1015.3
20260501223549 16 291 3.2 9.7 0.00 0.00 0.00 48 1015.3
20260501223405 16 321 3.2 14.5 0.00 0.00 0.00 48 1015.2
20260501223149 16 303 3.2 14.5 0.00 0.00 0.00 48 1015.3
20260501222623 16 294 4.8 14.5 0.00 0.00 0.00 48 1015.2
20260501222341 16 321 4.8 19.3 0.00 0.00 0.00 46 1015.1
20260501222210 16 14 4.8 19.3 0.00 0.00 0.00 47 1015.0
20260501222010 16 30 3.2 19.3 0.00 0.00 0.00 47 1015.2
20260501221427 16 34 3.2 14.5 0.00 0.00 0.00 46 1015.0
20260501221124 16 301 3.2 11.3 0.00 0.00 0.00 46 1015.1
20260501221019 16 276 3.2 11.3 0.00 0.00 0.00 47 1015.1
20260501220740 16 272 3.2 9.7 0.00 0.00 0.00 46 1015.1
20260501220552 16 275 3.2 9.7 0.00 0.00 0.00 46 1015.1
20260501220405 16 280 3.2 9.7 0.00 0.00 0.00 45 1015.1
20260501220004 16 300 3.2 14.5 0.00 0.00 0.00 47 1015.1
20260501215526 16 330 4.8 14.5 0.00 0.00 0.00 47 1015.1
20260501215335 16 312 4.8 14.5 0.00 0.00 0.00 45 1015.1
20260501214926 16 299 3.2 14.5 0.00 0.00 0.00 45 1015.1
20260501214913 16 300 3.2 14.5 0.00 0.00 0.00 45 1015.1
20260501214435 17 290 3.2 9.7 0.00 0.00 0.00 44 1015.1
20260501214129 17 349 3.2 12.9 0.00 0.00 0.00 45 1015.1
20260501213557 17 287 3.2 14.5 0.00 0.00 0.00 45 1015.1
20260501213331 17 288 3.2 14.5 0.00 0.00 0.00 44 1015.2
20260501213141 17 293 3.2 14.5 0.00 0.00 0.00 45 1015.3
20260501212739 17 301 3.2 12.9 0.00 0.00 0.00 43 1015.3
20260501212148 17 285 3.2 12.9 0.00 0.00 0.00 43 1015.3
20260501212012 17 285 3.2 12.9 0.00 0.00 0.00 44 1015.3
20260501211907 17 283 3.2 9.7 0.00 0.00 0.00 44 1015.3
20260501211431 17 284 3.2 9.7 0.00 0.00 0.00 42 1015.5
20260501210934 17 285 3.2 12.9 0.00 0.00 0.00 43 1015.6
20260501210830 17 286 3.2 12.9 0.00 0.00 0.00 44 1015.6
20260501210554 17 289 3.2 12.9 0.00 0.00 0.00 45 1015.6
20260501210204 17 289 3.2 12.9 0.00 0.00 0.00 41 1015.6